Location: Lane
(33.5226°N, 79.8788°W)
Time: 08:51:26
(UTC+00:00)

Vanguard 2 - Pass Details

Date: 06 October 2022
Orbit: 553 x 2932 km, 32.9° (Epoch: 08 December)

Event Time Altitude Azimuth Distance (km) Brightness Sun altitude
Rises 21:56:19 0° 283° (WNW) 5,671 13.2 11.7°
Reaches altitude 10° 21:59:39 10° 281° (W) 4,922 13.1 11.0°
Maximum altitude 22:14:44 65° 204° (SSW) 3,051 10.9 7.9°
Drops below altitude 10° 22:32:15 10° 127° (SE) 5,602 11.5 4.3°
Sets 22:36:21 0° 125° (SE) 6,461 11.8 3.5°
